Tracking 22458 objects as of 2-Mar-2021
HD Live streaming from Space Station
objects crossing your sky now

FLOCK 4EP 2

Track FLOCK 4EP 2 now!
10-day predictions
FLOCK 4EP 2 is classified as:


NORAD ID: 46820
Int'l Code: 2020-077H
Perigee: 511.1 km
Apogee: 529.6 km
Inclination: 97.5 °
Period: 94.9 minutes
Semi major axis: 6891 km
RCS: Unknown
Launch date: October 28, 2020
Source: United States (US)
Launch site: Rocket Lab Launch Complex (RLLC)
aabbcc
Your satellite tracking list
Your tracking list is empty




NASA's NSSDC Master Catalog

Two Line Element Set (TLE):
1 46820U 20077H   21059.92346400  .00002237  00000-0  11458-3 0  9997
2 46820  97.4872 125.0997 0013459 223.4685 239.7812 15.17561606 18654
Source of the keplerian elements: AFSPC